Location: Charbonni�res
(45.9952°N, 2.9982°E)
Time: 17:56:30
(UTC+00:00)

BREEZE-M DEB - Pass Details

Date: 29 November 2020
Orbit: 281 x 15981 km, 49.6° (Epoch: 17 January)

Event Time Altitude Azimuth Distance (km) Brightness Sun altitude
Exits shadow 06:11:15 11° 294° (WNW) 4,595 6.8 -9.6°
Maximum altitude 06:19:53 44° 226° (SW) 1,052 4.1 -8.2°
Drops below altitude 10° 06:22:54 10° 152° (SSE) 1,610 6.1 -7.7°
Sets 06:24:15 0° 143° (SE) 2,220 7.1 -7.5°
